TimeCST,TemperatureF,Dew PointF,Humidity,Sea Level PressureIn,VisibilityMPH,Wind Direction,Wind SpeedMPH,Gust SpeedMPH,PrecipitationIn,Events,Conditions,WindDirDegrees,DateUTC
12:53 AM,45.0,44.1,97,29.94,5.0,Calm,Calm,-,N/A,,Scattered Clouds,0,2012-12-02 06:53:00
1:09 AM,42.8,41.0,93,29.95,1.0,Calm,Calm,-,N/A,,Mist,0,2012-12-02 07:09:00
1:14 AM,39.2,39.2,100,29.95,0.2,Calm,Calm,-,N/A,Fog,Fog,0,2012-12-02 07:14:00
1:21 AM,41.0,39.2,93,29.95,3.0,Calm,Calm,-,N/A,,Partly Cloudy,0,2012-12-02 07:21:00
1:53 AM,39.0,39.0,100,29.95,3.0,Calm,Calm,-,N/A,,Scattered Clouds,0,2012-12-02 07:53:00
2:43 AM,42.8,42.8,100,29.97,1.5,Calm,Calm,-,N/A,,Mostly Cloudy,0,2012-12-02 08:43:00
2:53 AM,41.0,41.0,100,29.97,0.8,NNW,4.6,-,N/A,,Mist,340,2012-12-02 08:53:00
3:11 AM,39.2,39.2,100,29.96,2.0,NW,4.6,-,N/A,,Scattered Clouds,310,2012-12-02 09:11:00
3:20 AM,37.4,37.4,100,29.97,1.0,WNW,3.5,-,N/A,,Mist,290,2012-12-02 09:20:00
3:37 AM,39.2,39.2,100,29.97,1.0,WNW,3.5,-,N/A,,Scattered Clouds,300,2012-12-02 09:37:00
3:44 AM,37.4,37.4,100,29.98,2.5,Calm,Calm,-,N/A,,Scattered Clouds,0,2012-12-02 09:44:00
3:53 AM,37.9,37.9,100,29.98,2.0,Calm,Calm,-,N/A,,Scattered Clouds,0,2012-12-02 09:53:00
4:05 AM,35.6,35.6,100,29.97,1.5,SSW,3.5,-,N/A,,Scattered Clouds,210,2012-12-02 10:05:00
4:12 AM,35.6,35.6,100,29.97,2.5,SW,3.5,-,N/A,,Scattered Clouds,220,2012-12-02 10:12:00
4:29 AM,35.6,35.6,100,29.97,1.5,South,3.5,-,N/A,,Mostly Cloudy,180,2012-12-02 10:29:00
4:53 AM,36.0,36.0,100,29.99,1.5,Calm,Calm,-,N/A,,Mostly Cloudy,0,2012-12-02 10:53:00
5:03 AM,37.4,37.4,100,29.98,1.5,WNW,3.5,-,N/A,,Scattered Clouds,290,2012-12-02 11:03:00
5:31 AM,35.6,35.6,100,29.99,3.0,West,3.5,-,N/A,,Partly Cloudy,260,2012-12-02 11:31:00
5:53 AM,36.0,35.1,97,30.01,3.0,Calm,Calm,-,N/A,,Clear,0,2012-12-02 11:53:00
6:53 AM,37.9,37.0,97,30.03,5.0,Calm,Calm,-,N/A,,Scattered Clouds,0,2012-12-02 12:53:00
7:53 AM,37.0,36.0,96,30.05,6.0,Calm,Calm,-,N/A,,Mostly Cloudy,0,2012-12-02 13:53:00
8:53 AM,45.0,43.0,93,30.04,7.0,Calm,Calm,-,N/A,,Mostly Cloudy,0,2012-12-02 14:53:00
9:53 AM,51.1,45.0,80,30.04,10.0,Calm,Calm,-,N/A,,Mostly Cloudy,0,2012-12-02 15:53:00
10:53 AM,59.0,46.9,64,30.04,10.0,Calm,Calm,-,N/A,,Mostly Cloudy,0,2012-12-02 16:53:00
11:53 AM,63.0,44.1,50,30.01,10.0,ESE,4.6,-,N/A,,Mostly Cloudy,110,2012-12-02 17:53:00
12:53 PM,66.9,45.0,45,29.96,10.0,SSE,4.6,-,N/A,,Mostly Cloudy,150,2012-12-02 18:53:00
1:53 PM,69.1,46.9,45,29.93,10.0,SSE,10.4,-,N/A,,Mostly Cloudy,160,2012-12-02 19:53:00
2:53 PM,68.0,48.0,49,29.91,10.0,SE,11.5,-,N/A,,Mostly Cloudy,140,2012-12-02 20:53:00
3:53 PM,66.0,46.0,48,29.90,10.0,SSE,11.5,-,N/A,,Mostly Cloudy,160,2012-12-02 21:53:00
4:53 PM,63.0,45.0,52,29.90,10.0,South,13.8,-,N/A,,Overcast,170,2012-12-02 22:53:00
5:53 PM,55.9,43.0,62,29.91,10.0,SSE,6.9,-,N/A,,Overcast,160,2012-12-02 23:53:00
6:53 PM,57.0,44.1,62,29.88,10.0,SSE,9.2,-,N/A,,Mostly Cloudy,150,2012-12-03 00:53:00
7:53 PM,54.0,43.0,66,29.86,10.0,SSE,9.2,-,N/A,,Scattered Clouds,160,2012-12-03 01:53:00
8:53 PM,54.0,43.0,66,29.84,10.0,SSE,6.9,-,N/A,,Scattered Clouds,150,2012-12-03 02:53:00
9:53 PM,53.1,43.0,69,29.83,10.0,SE,8.1,-,N/A,,Scattered Clouds,140,2012-12-03 03:53:00
10:53 PM,57.0,48.0,72,29.79,10.0,SSE,12.7,-,N/A,,Mostly Cloudy,160,2012-12-03 04:53:00
11:53 PM,60.1,54.0,80,29.77,10.0,South,15.0,-,N/A,,Mostly Cloudy,170,2012-12-03 05:53:00